Year,Month,Day,Hour,Minute,Value (Times are PST for temperature in C)
2016,06,30,00,00,17.80
2016,06,30,00,01,17.80
2016,06,30,00,02,17.80
2016,06,30,00,03,17.70
2016,06,30,00,04,17.70
2016,06,30,00,05,17.70
2016,06,30,00,06,17.70
2016,06,30,00,07,17.70
2016,06,30,00,08,17.70
2016,06,30,00,09,17.60
2016,06,30,00,10,17.60
2016,06,30,00,11,17.60
2016,06,30,00,12,17.60
2016,06,30,00,13,17.60
2016,06,30,00,14,17.60
2016,06,30,00,15,17.60
2016,06,30,00,16,17.60
2016,06,30,00,17,17.50
2016,06,30,00,18,17.50
2016,06,30,00,19,17.50
2016,06,30,00,20,17.50
2016,06,30,00,21,17.50
2016,06,30,00,22,17.40
2016,06,30,00,23,17.40
2016,06,30,00,24,17.40
2016,06,30,00,25,17.40
2016,06,30,00,26,17.30
2016,06,30,00,27,17.30
2016,06,30,00,28,17.30
2016,06,30,00,29,17.30
2016,06,30,00,30,17.30
2016,06,30,00,31,17.30
2016,06,30,00,32,17.30
2016,06,30,00,33,17.30
2016,06,30,00,34,17.20
2016,06,30,00,35,17.20
2016,06,30,00,36,17.20
2016,06,30,00,37,17.20
2016,06,30,00,38,17.20
2016,06,30,00,39,17.20
2016,06,30,00,40,17.20
2016,06,30,00,41,17.20
2016,06,30,00,42,17.20
2016,06,30,00,43,17.20
2016,06,30,00,44,17.20
2016,06,30,00,45,17.20
2016,06,30,00,46,17.10
2016,06,30,00,47,17.10
2016,06,30,00,48,17.10
2016,06,30,00,49,17.10
2016,06,30,00,50,17.00
2016,06,30,00,51,17.00
2016,06,30,00,52,17.00
2016,06,30,00,53,17.00
2016,06,30,00,54,17.00
2016,06,30,00,55,17.00
2016,06,30,00,56,16.90
2016,06,30,00,57,16.90
2016,06,30,00,58,16.90
2016,06,30,00,59,16.90
2016,06,30,01,00,16.90
2016,06,30,01,01,16.90
2016,06,30,01,02,16.90
2016,06,30,01,03,16.90
2016,06,30,01,04,16.90
2016,06,30,01,05,16.90
2016,06,30,01,06,16.90
2016,06,30,01,07,16.90
2016,06,30,01,08,16.90
2016,06,30,01,09,16.90
2016,06,30,01,10,16.90
2016,06,30,01,11,16.90
2016,06,30,01,12,16.80
2016,06,30,01,13,16.80
2016,06,30,01,14,16.80
2016,06,30,01,15,16.80
2016,06,30,01,16,16.80
2016,06,30,01,17,16.80
2016,06,30,01,18,16.80
2016,06,30,01,19,16.70
2016,06,30,01,20,16.70
2016,06,30,01,21,16.70
2016,06,30,01,22,16.70
2016,06,30,01,23,16.70
2016,06,30,01,24,16.60
2016,06,30,01,25,16.60
2016,06,30,01,26,16.60
2016,06,30,01,27,16.50
2016,06,30,01,28,16.50
2016,06,30,01,29,16.50
2016,06,30,01,30,16.40
2016,06,30,01,31,16.40
2016,06,30,01,32,16.40
2016,06,30,01,33,16.40
2016,06,30,01,34,16.40
2016,06,30,01,35,16.40
2016,06,30,01,36,16.40
2016,06,30,01,37,16.40
2016,06,30,01,38,16.40
2016,06,30,01,39,16.40
2016,06,30,01,40,16.40
2016,06,30,01,41,16.40
2016,06,30,01,42,16.40
2016,06,30,01,43,16.40
2016,06,30,01,44,16.40
2016,06,30,01,45,16.40
2016,06,30,01,46,16.40
2016,06,30,01,47,16.40
2016,06,30,01,48,16.40
2016,06,30,01,49,16.40
2016,06,30,01,50,16.40
2016,06,30,01,51,16.40
2016,06,30,01,52,16.30
2016,06,30,01,53,16.30
2016,06,30,01,54,16.30
2016,06,30,01,55,16.30
2016,06,30,01,56,16.30
2016,06,30,01,57,16.30
2016,06,30,01,58,16.30
2016,06,30,01,59,16.20
2016,06,30,02,00,16.20
2016,06,30,02,01,16.20
2016,06,30,02,02,16.20
2016,06,30,02,03,16.20
2016,06,30,02,04,16.20
2016,06,30,02,05,16.20
2016,06,30,02,06,16.20
2016,06,30,02,07,16.10
2016,06,30,02,08,16.10
2016,06,30,02,09,16.10
2016,06,30,02,10,16.10
2016,06,30,02,11,16.10
2016,06,30,02,12,16.10
2016,06,30,02,13,16.10
2016,06,30,02,14,16.10
2016,06,30,02,15,16.10
2016,06,30,02,16,16.10
2016,06,30,02,17,16.00
2016,06,30,02,18,16.00
2016,06,30,02,19,16.00
2016,06,30,02,20,15.90
2016,06,30,02,21,15.90
2016,06,30,02,22,15.90
2016,06,30,02,23,15.90
2016,06,30,02,24,15.90
2016,06,30,02,25,15.90
2016,06,30,02,26,15.90
2016,06,30,02,27,15.80
2016,06,30,02,28,15.80
2016,06,30,02,29,15.80
2016,06,30,02,30,15.80
2016,06,30,02,31,15.80
2016,06,30,02,32,15.80
2016,06,30,02,33,15.70
2016,06,30,02,34,15.70
2016,06,30,02,35,15.70
2016,06,30,02,36,15.70
2016,06,30,02,37,15.70
2016,06,30,02,38,15.70
2016,06,30,02,39,15.70
2016,06,30,02,40,15.70
2016,06,30,02,41,15.70
2016,06,30,02,42,15.70
2016,06,30,02,43,15.70
2016,06,30,02,44,15.70
2016,06,30,02,45,15.60
2016,06,30,02,46,15.60
2016,06,30,02,47,15.60
2016,06,30,02,48,15.60
2016,06,30,02,49,15.60
2016,06,30,02,50,15.60
2016,06,30,02,51,15.60
2016,06,30,02,52,15.60
2016,06,30,02,53,15.60
2016,06,30,02,54,15.60
2016,06,30,02,55,15.60
2016,06,30,02,56,15.60
2016,06,30,02,57,15.50
2016,06,30,02,58,15.50
2016,06,30,02,59,15.50
2016,06,30,03,00,15.50
2016,06,30,03,01,15.50
2016,06,30,03,02,15.50
2016,06,30,03,03,15.40
2016,06,30,03,04,15.40
2016,06,30,03,05,15.40
2016,06,30,03,06,15.40
2016,06,30,03,07,15.40
2016,06,30,03,08,15.40
2016,06,30,03,09,15.40
2016,06,30,03,10,15.40
2016,06,30,03,11,15.40
2016,06,30,03,12,15.30
2016,06,30,03,13,15.30
2016,06,30,03,14,15.30
2016,06,30,03,15,15.30
2016,06,30,03,16,15.30
2016,06,30,03,17,15.30
2016,06,30,03,18,15.30
2016,06,30,03,19,15.30
2016,06,30,03,20,15.30
2016,06,30,03,21,15.30
2016,06,30,03,22,15.30
2016,06,30,03,23,15.20
2016,06,30,03,24,15.20
2016,06,30,03,25,15.20
2016,06,30,03,26,15.20
2016,06,30,03,27,15.20
2016,06,30,03,28,15.20
2016,06,30,03,29,15.20
2016,06,30,03,30,15.20
2016,06,30,03,31,15.10
2016,06,30,03,32,15.10
2016,06,30,03,33,15.10
2016,06,30,03,34,15.10
2016,06,30,03,35,15.10
2016,06,30,03,36,15.10
2016,06,30,03,37,15.10
2016,06,30,03,38,15.10
2016,06,30,03,39,15.10
2016,06,30,03,40,15.10
2016,06,30,03,41,15.10
2016,06,30,03,42,15.10
2016,06,30,03,43,15.10
2016,06,30,03,44,15.10
2016,06,30,03,45,15.10
2016,06,30,03,46,15.10
2016,06,30,03,47,15.10
2016,06,30,03,48,15.10
2016,06,30,03,49,15.10
2016,06,30,03,50,15.10
2016,06,30,03,51,15.10
2016,06,30,03,52,15.00
2016,06,30,03,53,15.00
2016,06,30,03,54,15.00
2016,06,30,03,55,15.00
2016,06,30,03,56,15.00
2016,06,30,03,57,15.00
2016,06,30,03,58,14.90
2016,06,30,03,59,14.90
2016,06,30,04,00,14.90
2016,06,30,04,01,14.90
2016,06,30,04,02,14.90
2016,06,30,04,03,14.90
2016,06,30,04,04,14.80
2016,06,30,04,05,14.80
2016,06,30,04,06,14.80
2016,06,30,04,07,14.80
2016,06,30,04,08,14.80
2016,06,30,04,09,14.80
2016,06,30,04,10,14.80
2016,06,30,04,11,14.80
2016,06,30,04,12,14.70
2016,06,30,04,13,14.70
2016,06,30,04,14,14.70
2016,06,30,04,15,14.70
2016,06,30,04,16,14.70
2016,06,30,04,17,14.70
2016,06,30,04,18,14.70
2016,06,30,04,19,14.70
2016,06,30,04,20,14.70
2016,06,30,04,21,14.70
2016,06,30,04,22,14.60
2016,06,30,04,23,14.60
2016,06,30,04,24,14.60
2016,06,30,04,25,14.60
2016,06,30,04,26,14.60
2016,06,30,04,27,14.60
2016,06,30,04,28,14.60
2016,06,30,04,29,14.60
2016,06,30,04,30,14.60
2016,06,30,04,31,14.60
2016,06,30,04,32,14.60
2016,06,30,04,33,14.60
2016,06,30,04,34,14.50
2016,06,30,04,35,14.50
2016,06,30,04,36,14.50
2016,06,30,04,37,14.50
2016,06,30,04,38,14.50
2016,06,30,04,39,14.50
2016,06,30,04,40,14.40
2016,06,30,04,41,14.40
2016,06,30,04,42,14.40
2016,06,30,04,43,14.40
2016,06,30,04,44,14.40
2016,06,30,04,45,14.40
2016,06,30,04,46,14.40
2016,06,30,04,47,14.40
2016,06,30,04,48,14.40
2016,06,30,04,49,14.40
2016,06,30,04,50,14.40
2016,06,30,04,51,14.40
2016,06,30,04,52,14.40
2016,06,30,04,53,14.40
2016,06,30,04,54,14.50
2016,06,30,04,55,14.40
2016,06,30,04,56,14.50
2016,06,30,04,57,14.50
2016,06,30,04,58,14.50
2016,06,30,04,59,14.50
2016,06,30,05,00,14.50
2016,06,30,05,01,14.50
2016,06,30,05,02,14.50
2016,06,30,05,03,14.50
2016,06,30,05,04,14.50
2016,06,30,05,05,14.50
2016,06,30,05,06,14.50
2016,06,30,05,07,14.50
2016,06,30,05,08,14.50
2016,06,30,05,09,14.40
2016,06,30,05,10,14.50
2016,06,30,05,11,14.50
2016,06,30,05,12,14.50
2016,06,30,05,13,14.50
2016,06,30,05,14,14.50
2016,06,30,05,15,14.50
2016,06,30,05,16,14.40
2016,06,30,05,17,14.40
2016,06,30,05,18,14.50
2016,06,30,05,19,14.50
2016,06,30,05,20,14.50
2016,06,30,05,21,14.50
2016,06,30,05,22,14.50
2016,06,30,05,23,14.50
2016,06,30,05,24,14.50
2016,06,30,05,25,14.50
2016,06,30,05,26,14.50
2016,06,30,05,27,14.40
2016,06,30,05,28,14.50
2016,06,30,05,29,14.50
2016,06,30,05,30,14.40
2016,06,30,05,31,14.40
2016,06,30,05,32,14.40
2016,06,30,05,33,14.40
2016,06,30,05,34,14.40
2016,06,30,05,35,14.40
2016,06,30,05,36,14.40
2016,06,30,05,37,14.40
2016,06,30,05,38,14.40
2016,06,30,05,39,14.30
2016,06,30,05,40,14.30
2016,06,30,05,41,14.40
2016,06,30,05,42,14.40
2016,06,30,05,43,14.40
2016,06,30,05,44,14.50
2016,06,30,05,45,14.50
2016,06,30,05,46,14.50
2016,06,30,05,47,14.60
2016,06,30,05,48,14.60
2016,06,30,05,49,14.60
2016,06,30,05,50,14.60
2016,06,30,05,51,14.60
2016,06,30,05,52,14.60
2016,06,30,05,53,14.60
2016,06,30,05,54,14.60
2016,06,30,05,55,14.60
2016,06,30,05,56,14.60
2016,06,30,05,57,14.60
2016,06,30,05,58,14.50
2016,06,30,05,59,14.60
2016,06,30,06,00,14.50
2016,06,30,06,01,14.50
2016,06,30,06,02,14.50
2016,06,30,06,03,14.50
2016,06,30,06,04,14.50
2016,06,30,06,05,14.50
2016,06,30,06,06,14.60
2016,06,30,06,07,14.50
2016,06,30,06,08,14.50
2016,06,30,06,09,14.50
2016,06,30,06,10,14.50
2016,06,30,06,11,14.50
2016,06,30,06,12,14.50
2016,06,30,06,13,14.50
2016,06,30,06,14,14.50
2016,06,30,06,15,14.50
2016,06,30,06,16,14.50
2016,06,30,06,17,14.50
2016,06,30,06,18,14.50
2016,06,30,06,19,14.50
2016,06,30,06,20,14.50
2016,06,30,06,21,14.50
2016,06,30,06,22,14.50
2016,06,30,06,23,14.50
2016,06,30,06,24,14.50
2016,06,30,06,25,14.50
2016,06,30,06,26,14.50
2016,06,30,06,27,14.60
2016,06,30,06,28,14.60
2016,06,30,06,29,14.60
2016,06,30,06,30,14.60
2016,06,30,06,31,14.60
2016,06,30,06,32,14.60
2016,06,30,06,33,14.60
2016,06,30,06,34,14.60
2016,06,30,06,35,14.60
2016,06,30,06,36,14.70
2016,06,30,06,37,14.70
2016,06,30,06,38,14.70
2016,06,30,06,39,14.70
2016,06,30,06,40,14.70
2016,06,30,06,41,14.70
2016,06,30,06,42,14.70
2016,06,30,06,43,14.70
2016,06,30,06,44,14.70
2016,06,30,06,45,14.70
2016,06,30,06,46,14.70
2016,06,30,06,47,14.70
2016,06,30,06,48,14.70
2016,06,30,06,49,14.70
2016,06,30,06,50,14.70
2016,06,30,06,51,14.70
2016,06,30,06,52,14.70
2016,06,30,06,53,14.70
2016,06,30,06,54,14.70
2016,06,30,06,55,14.80
2016,06,30,06,56,14.80
2016,06,30,06,57,14.80
2016,06,30,06,58,14.80
2016,06,30,06,59,14.80
2016,06,30,07,00,14.80
2016,06,30,07,01,14.80
2016,06,30,07,02,14.80
2016,06,30,07,03,14.80
2016,06,30,07,04,14.80
2016,06,30,07,05,14.80
2016,06,30,07,06,14.80
2016,06,30,07,07,14.90
2016,06,30,07,08,14.90
2016,06,30,07,09,14.90
2016,06,30,07,10,14.90
2016,06,30,07,11,15.00
2016,06,30,07,12,15.00
2016,06,30,07,13,15.00
2016,06,30,07,14,15.10
2016,06,30,07,15,15.10
2016,06,30,07,16,15.10
2016,06,30,07,17,15.20
2016,06,30,07,18,15.20
2016,06,30,07,19,15.20
2016,06,30,07,20,15.20
2016,06,30,07,21,15.20
2016,06,30,07,22,15.20
2016,06,30,07,23,15.30
2016,06,30,07,24,15.30
2016,06,30,07,25,15.30
2016,06,30,07,26,15.30
2016,06,30,07,27,15.30
2016,06,30,07,28,15.30
2016,06,30,07,29,15.30
2016,06,30,07,30,15.30
2016,06,30,07,31,15.30
2016,06,30,07,32,15.30
2016,06,30,07,33,15.30
2016,06,30,07,34,15.30
2016,06,30,07,35,15.30
2016,06,30,07,36,15.30
2016,06,30,07,37,15.30
2016,06,30,07,38,15.30
2016,06,30,07,39,15.40
2016,06,30,07,40,15.40
2016,06,30,07,41,15.40
2016,06,30,07,42,15.40
2016,06,30,07,43,15.40
2016,06,30,07,44,15.40
2016,06,30,07,45,15.50
2016,06,30,07,46,15.50
2016,06,30,07,47,15.50
2016,06,30,07,48,15.50
2016,06,30,07,49,15.60
2016,06,30,07,50,15.60
2016,06,30,07,51,15.60
2016,06,30,07,52,15.70
2016,06,30,07,53,15.70
2016,06,30,07,54,15.80
2016,06,30,07,55,15.80
2016,06,30,07,56,15.80
2016,06,30,07,57,15.80
2016,06,30,07,58,15.80
2016,06,30,07,59,15.80
2016,06,30,08,00,15.80
2016,06,30,08,01,15.80
2016,06,30,08,02,15.80
2016,06,30,08,03,15.80
2016,06,30,08,04,15.80
2016,06,30,08,05,15.80
2016,06,30,08,06,15.80
2016,06,30,08,07,15.80
2016,06,30,08,08,15.80
2016,06,30,08,09,15.80
2016,06,30,08,10,15.80
2016,06,30,08,11,15.80
2016,06,30,08,12,15.80
2016,06,30,08,13,15.90
2016,06,30,08,14,15.90
2016,06,30,08,15,15.90
2016,06,30,08,16,15.90
2016,06,30,08,17,15.90
2016,06,30,08,18,15.90
2016,06,30,08,19,15.90
2016,06,30,08,20,15.90
2016,06,30,08,21,15.90
2016,06,30,08,22,16.00
2016,06,30,08,23,16.00
2016,06,30,08,24,16.00
2016,06,30,08,25,16.10
2016,06,30,08,26,16.10
2016,06,30,08,27,16.20
2016,06,30,08,28,16.20
2016,06,30,08,29,16.30
2016,06,30,08,30,16.30
2016,06,30,08,31,16.30
2016,06,30,08,32,16.30
2016,06,30,08,33,16.30
2016,06,30,08,34,16.30
2016,06,30,08,35,16.30
2016,06,30,08,36,16.30
2016,06,30,08,37,16.30
2016,06,30,08,38,16.30
2016,06,30,08,39,16.30
2016,06,30,08,40,16.30
2016,06,30,08,41,16.30
2016,06,30,08,42,16.30
2016,06,30,08,43,16.40
2016,06,30,08,44,16.40
2016,06,30,08,45,16.50
2016,06,30,08,46,16.50
2016,06,30,08,47,16.60
2016,06,30,08,48,16.60
2016,06,30,08,49,16.70
2016,06,30,08,50,16.80
2016,06,30,08,51,16.80
2016,06,30,08,52,16.90
2016,06,30,08,53,16.90
2016,06,30,08,54,17.00
2016,06,30,08,55,17.00
2016,06,30,08,56,17.10
2016,06,30,08,57,17.10
2016,06,30,08,58,17.00
2016,06,30,08,59,16.90
2016,06,30,09,00,16.80
2016,06,30,09,01,16.80
2016,06,30,09,02,16.80
2016,06,30,09,03,16.70
2016,06,30,09,04,16.70
2016,06,30,09,05,16.70
2016,06,30,09,06,16.70
2016,06,30,09,07,16.70
2016,06,30,09,08,16.60
2016,06,30,09,09,16.60
2016,06,30,09,10,16.60
2016,06,30,09,11,16.60
2016,06,30,09,12,16.60
2016,06,30,09,13,16.60
2016,06,30,09,14,16.60
2016,06,30,09,15,16.60
2016,06,30,09,16,16.60
2016,06,30,09,17,16.60
2016,06,30,09,18,16.60
2016,06,30,09,19,16.60
2016,06,30,09,20,16.60
2016,06,30,09,21,16.60
2016,06,30,09,22,16.50
2016,06,30,09,23,16.50
2016,06,30,09,24,16.50
2016,06,30,09,25,16.50
2016,06,30,09,26,16.50
2016,06,30,09,27,16.60
2016,06,30,09,28,16.60
2016,06,30,09,29,16.60
2016,06,30,09,30,16.70
2016,06,30,09,31,16.70
2016,06,30,09,32,16.80
2016,06,30,09,33,16.80
2016,06,30,09,34,16.70
2016,06,30,09,35,16.70
2016,06,30,09,36,16.80
2016,06,30,09,37,16.70
2016,06,30,09,38,16.70
2016,06,30,09,39,16.80
2016,06,30,09,40,16.80
2016,06,30,09,41,16.80
2016,06,30,09,42,16.80
2016,06,30,09,43,16.80
2016,06,30,09,44,16.80
2016,06,30,09,45,16.80
2016,06,30,09,46,16.90
2016,06,30,09,47,16.90
2016,06,30,09,48,16.90
2016,06,30,09,49,16.90
2016,06,30,09,50,17.00
2016,06,30,09,51,17.00
2016,06,30,09,52,17.10
2016,06,30,09,53,17.20
2016,06,30,09,54,17.30
2016,06,30,09,55,17.30
2016,06,30,09,56,17.30
2016,06,30,09,57,17.30
2016,06,30,09,58,17.30
2016,06,30,09,59,17.30
2016,06,30,10,00,17.30
2016,06,30,10,01,17.20
2016,06,30,10,02,17.20
2016,06,30,10,03,17.30
2016,06,30,10,04,17.30
2016,06,30,10,05,17.30
2016,06,30,10,06,17.40
2016,06,30,10,07,17.40
2016,06,30,10,08,17.40
2016,06,30,10,09,17.40
2016,06,30,10,10,17.40
2016,06,30,10,11,17.50
2016,06,30,10,12,17.50
2016,06,30,10,13,17.60
2016,06,30,10,14,17.60
2016,06,30,10,15,17.70
2016,06,30,10,16,17.60
2016,06,30,10,17,17.60
2016,06,30,10,18,17.60
2016,06,30,10,19,17.60
2016,06,30,10,20,17.60
2016,06,30,10,21,17.60
2016,06,30,10,22,17.70
2016,06,30,10,23,17.70
2016,06,30,10,24,17.80
2016,06,30,10,25,17.90
2016,06,30,10,26,18.00
2016,06,30,10,27,18.10
2016,06,30,10,28,18.20
2016,06,30,10,29,18.30
2016,06,30,10,30,18.30
2016,06,30,10,31,18.30
2016,06,30,10,32,18.30
2016,06,30,10,33,18.30
2016,06,30,10,34,18.20
2016,06,30,10,35,18.20
2016,06,30,10,36,18.20
2016,06,30,10,37,18.20
2016,06,30,10,38,18.30
2016,06,30,10,39,18.40
2016,06,30,10,40,18.40
2016,06,30,10,41,18.40
2016,06,30,10,42,18.40
2016,06,30,10,43,18.30
2016,06,30,10,44,18.20
2016,06,30,10,45,18.20
2016,06,30,10,46,18.20
2016,06,30,10,47,18.20
2016,06,30,10,48,18.20
2016,06,30,10,49,18.20
2016,06,30,10,50,18.20
2016,06,30,10,51,18.20
2016,06,30,10,52,18.20
2016,06,30,10,53,18.20
2016,06,30,10,54,18.30
2016,06,30,10,55,18.30
2016,06,30,10,56,18.40
2016,06,30,10,57,18.50
2016,06,30,10,58,18.50
2016,06,30,10,59,18.60
2016,06,30,11,00,18.60
2016,06,30,11,01,18.60
2016,06,30,11,02,18.60
2016,06,30,11,03,18.70
2016,06,30,11,04,18.60
2016,06,30,11,05,18.60
2016,06,30,11,06,18.50
2016,06,30,11,07,18.40
2016,06,30,11,08,18.40
2016,06,30,11,09,18.50
2016,06,30,11,10,18.60
2016,06,30,11,11,18.60
2016,06,30,11,12,18.60
2016,06,30,11,13,18.60
2016,06,30,11,14,18.50
2016,06,30,11,15,18.50
2016,06,30,11,16,18.40
2016,06,30,11,17,18.40
2016,06,30,11,18,18.40
2016,06,30,11,19,18.40
2016,06,30,11,20,18.30
2016,06,30,11,21,18.30
2016,06,30,11,22,18.30
2016,06,30,11,23,18.40
2016,06,30,11,24,18.40
2016,06,30,11,25,18.40
2016,06,30,11,26,18.50
2016,06,30,11,27,18.60
2016,06,30,11,28,18.60
2016,06,30,11,29,18.70
2016,06,30,11,30,18.80
2016,06,30,11,31,18.90
2016,06,30,11,32,18.90
2016,06,30,11,33,19.00
2016,06,30,11,34,19.10
2016,06,30,11,35,19.10
2016,06,30,11,36,19.10
2016,06,30,11,37,19.20
2016,06,30,11,38,19.20
2016,06,30,11,39,19.20
2016,06,30,11,40,19.20
2016,06,30,11,41,19.10
2016,06,30,11,42,19.10
2016,06,30,11,43,19.10
2016,06,30,11,44,19.20
2016,06,30,11,45,19.30
2016,06,30,11,46,19.30
2016,06,30,11,47,19.30
2016,06,30,11,48,19.40
2016,06,30,11,49,19.40
2016,06,30,11,50,19.40
2016,06,30,11,51,19.40
2016,06,30,11,52,19.40
2016,06,30,11,53,19.40
2016,06,30,11,54,19.30
2016,06,30,11,55,19.30
2016,06,30,11,56,19.30
2016,06,30,11,57,19.40
2016,06,30,11,58,19.40
2016,06,30,11,59,19.40
2016,06,30,12,00,19.40
2016,06,30,12,01,19.30
2016,06,30,12,02,19.30
2016,06,30,12,03,19.20
2016,06,30,12,04,19.20
2016,06,30,12,05,19.20
2016,06,30,12,06,19.20
2016,06,30,12,07,19.30
2016,06,30,12,08,19.40
2016,06,30,12,09,19.50
2016,06,30,12,10,19.50
2016,06,30,12,11,19.50
2016,06,30,12,12,19.50
2016,06,30,12,13,19.50
2016,06,30,12,14,19.50
2016,06,30,12,15,19.50
2016,06,30,12,16,19.50
2016,06,30,12,17,19.50
2016,06,30,12,18,19.40
2016,06,30,12,19,19.40
2016,06,30,12,20,19.40
2016,06,30,12,21,19.50
2016,06,30,12,22,19.50
2016,06,30,12,23,19.60
2016,06,30,12,24,19.60
2016,06,30,12,25,19.70
2016,06,30,12,26,19.70
2016,06,30,12,27,19.70
2016,06,30,12,28,19.60
2016,06,30,12,29,19.70
2016,06,30,12,30,19.70
2016,06,30,12,31,19.70
2016,06,30,12,32,19.80
2016,06,30,12,33,19.80
2016,06,30,12,34,19.80
2016,06,30,12,35,19.80
2016,06,30,12,36,19.80
2016,06,30,12,37,19.80
2016,06,30,12,38,19.80
2016,06,30,12,39,19.80
2016,06,30,12,40,19.80
2016,06,30,12,41,19.90
2016,06,30,12,42,20.00
2016,06,30,12,43,20.00
2016,06,30,12,44,20.10
2016,06,30,12,45,20.10
2016,06,30,12,46,20.20
2016,06,30,12,47,20.20
2016,06,30,12,48,20.20
2016,06,30,12,49,20.20
2016,06,30,12,50,20.20
2016,06,30,12,51,20.10
2016,06,30,12,52,20.10
2016,06,30,12,53,20.10
2016,06,30,12,54,20.10
2016,06,30,12,55,20.10
2016,06,30,12,56,20.20
2016,06,30,12,57,20.20
2016,06,30,12,58,20.30
2016,06,30,12,59,20.30
2016,06,30,13,00,20.30
2016,06,30,13,01,20.30
2016,06,30,13,02,20.30
2016,06,30,13,03,20.30
2016,06,30,13,04,20.30
2016,06,30,13,05,20.20
2016,06,30,13,06,20.10
2016,06,30,13,07,20.00
2016,06,30,13,08,19.90
2016,06,30,13,09,19.90
2016,06,30,13,10,19.80
2016,06,30,13,11,19.80
2016,06,30,13,12,19.70
2016,06,30,13,13,19.70
2016,06,30,13,14,19.60
2016,06,30,13,15,19.60
2016,06,30,13,16,19.60
2016,06,30,13,17,19.60
2016,06,30,13,18,19.50
2016,06,30,13,19,19.60
2016,06,30,13,20,19.60
2016,06,30,13,21,19.50
2016,06,30,13,22,19.50
2016,06,30,13,23,19.40
2016,06,30,13,24,19.40
2016,06,30,13,25,19.30
2016,06,30,13,26,19.30
2016,06,30,13,27,19.20
2016,06,30,13,28,19.20
2016,06,30,13,29,19.20
2016,06,30,13,30,19.10
2016,06,30,13,31,19.10
2016,06,30,13,32,19.10
2016,06,30,13,33,19.10
2016,06,30,13,34,19.10
2016,06,30,13,35,19.20
2016,06,30,13,36,19.20
2016,06,30,13,37,19.30
2016,06,30,13,38,19.40
2016,06,30,13,39,19.40
2016,06,30,13,40,19.50
2016,06,30,13,41,19.60
2016,06,30,13,42,19.60
2016,06,30,13,43,19.60
2016,06,30,13,44,19.60
2016,06,30,13,45,19.70
2016,06,30,13,46,19.70
2016,06,30,13,47,19.80
2016,06,30,13,48,19.90
2016,06,30,13,49,20.10
2016,06,30,13,50,20.20
2016,06,30,13,51,20.30
2016,06,30,13,52,20.30
2016,06,30,13,53,20.30
2016,06,30,13,54,20.30
2016,06,30,13,55,20.30
2016,06,30,13,56,20.30
2016,06,30,13,57,20.40
2016,06,30,13,58,20.40
2016,06,30,13,59,20.50
2016,06,30,14,00,20.50
2016,06,30,14,01,20.60
2016,06,30,14,02,20.60
2016,06,30,14,03,20.60
2016,06,30,14,04,20.60
2016,06,30,14,05,20.60
2016,06,30,14,06,20.70
2016,06,30,14,07,20.70
2016,06,30,14,08,20.70
2016,06,30,14,09,20.80
2016,06,30,14,10,20.80
2016,06,30,14,11,20.80
2016,06,30,14,12,20.80
2016,06,30,14,13,20.80
2016,06,30,14,14,20.80
2016,06,30,14,15,20.80
2016,06,30,14,16,20.80
2016,06,30,14,17,20.80
2016,06,30,14,18,20.70
2016,06,30,14,19,20.70
2016,06,30,14,20,20.70
2016,06,30,14,21,20.70
2016,06,30,14,22,20.70
2016,06,30,14,23,20.80
2016,06,30,14,24,20.80
2016,06,30,14,25,20.80
2016,06,30,14,26,20.80
2016,06,30,14,27,20.70
2016,06,30,14,28,20.70
2016,06,30,14,29,20.60
2016,06,30,14,30,20.60
2016,06,30,14,31,20.60
2016,06,30,14,32,20.60
2016,06,30,14,33,20.60
2016,06,30,14,34,20.60
2016,06,30,14,35,20.70
2016,06,30,14,36,20.80
2016,06,30,14,37,20.80
2016,06,30,14,38,20.80
2016,06,30,14,39,20.80
2016,06,30,14,40,20.80
2016,06,30,14,41,20.80
2016,06,30,14,42,20.80
2016,06,30,14,43,20.70
2016,06,30,14,44,20.60
2016,06,30,14,45,20.60
2016,06,30,14,46,20.60
2016,06,30,14,47,20.60
2016,06,30,14,48,20.50
2016,06,30,14,49,20.50
2016,06,30,14,50,20.50
2016,06,30,14,51,20.50
2016,06,30,14,52,20.60
2016,06,30,14,53,20.50
2016,06,30,14,54,20.50
2016,06,30,14,55,20.40
2016,06,30,14,56,20.40
2016,06,30,14,57,20.40
2016,06,30,14,58,20.50
2016,06,30,14,59,20.50
2016,06,30,15,00,20.50
2016,06,30,15,01,20.50
2016,06,30,15,02,20.50
2016,06,30,15,03,20.60
2016,06,30,15,04,20.60
2016,06,30,15,05,20.70
2016,06,30,15,06,20.70
2016,06,30,15,07,20.80
2016,06,30,15,08,20.80
2016,06,30,15,09,20.70
2016,06,30,15,10,20.70
2016,06,30,15,11,20.60
2016,06,30,15,12,20.60
2016,06,30,15,13,20.60
2016,06,30,15,14,20.60
2016,06,30,15,15,20.70
2016,06,30,15,16,20.70
2016,06,30,15,17,20.70
2016,06,30,15,18,20.70
2016,06,30,15,19,20.70
2016,06,30,15,20,20.60
2016,06,30,15,21,20.60
2016,06,30,15,22,20.60
2016,06,30,15,23,20.60
2016,06,30,15,24,20.60
2016,06,30,15,25,20.70
2016,06,30,15,26,20.70
2016,06,30,15,27,20.80
2016,06,30,15,28,20.80
2016,06,30,15,29,20.80
2016,06,30,15,30,20.80
2016,06,30,15,31,20.70
2016,06,30,15,32,20.60
2016,06,30,15,33,20.60
2016,06,30,15,34,20.50
2016,06,30,15,35,20.50
2016,06,30,15,36,20.50
2016,06,30,15,37,20.40
2016,06,30,15,38,20.30
2016,06,30,15,39,20.30
2016,06,30,15,40,20.30
2016,06,30,15,41,20.30
2016,06,30,15,42,20.40
2016,06,30,15,43,20.40
2016,06,30,15,44,20.40
2016,06,30,15,45,20.40
2016,06,30,15,46,20.40
2016,06,30,15,47,20.30
2016,06,30,15,48,20.30
2016,06,30,15,49,20.30
2016,06,30,15,50,20.30
2016,06,30,15,51,20.30
2016,06,30,15,52,20.40
2016,06,30,15,53,20.40
2016,06,30,15,54,20.50
2016,06,30,15,55,20.60
2016,06,30,15,56,20.60
2016,06,30,15,57,20.70
2016,06,30,15,58,20.80
2016,06,30,15,59,20.80
2016,06,30,16,00,20.80
2016,06,30,16,01,20.90
2016,06,30,16,02,20.90
2016,06,30,16,03,20.90
2016,06,30,16,04,20.90
2016,06,30,16,05,20.90
2016,06,30,16,06,20.80
2016,06,30,16,07,20.80
2016,06,30,16,08,20.80
2016,06,30,16,09,20.70
2016,06,30,16,10,20.70
2016,06,30,16,11,20.70
2016,06,30,16,12,20.70
2016,06,30,16,13,20.70
2016,06,30,16,14,20.60
2016,06,30,16,15,20.60
2016,06,30,16,16,20.50
2016,06,30,16,17,20.50
2016,06,30,16,18,20.40
2016,06,30,16,19,20.30
2016,06,30,16,20,20.30
2016,06,30,16,21,20.30
2016,06,30,16,22,20.30
2016,06,30,16,23,20.30
2016,06,30,16,24,20.20
2016,06,30,16,25,20.20
2016,06,30,16,26,20.20
2016,06,30,16,27,20.10
2016,06,30,16,28,20.00
2016,06,30,16,29,20.00
2016,06,30,16,30,19.90
2016,06,30,16,31,19.80
2016,06,30,16,32,19.80
2016,06,30,16,33,19.80
2016,06,30,16,34,19.80
2016,06,30,16,35,19.80
2016,06,30,16,36,19.80
2016,06,30,16,37,19.80
2016,06,30,16,38,19.80
2016,06,30,16,39,19.80
2016,06,30,16,40,19.90
2016,06,30,16,41,20.00
2016,06,30,16,42,20.00
2016,06,30,16,43,20.10
2016,06,30,16,44,20.10
2016,06,30,16,45,20.10
2016,06,30,16,46,20.10
2016,06,30,16,47,20.20
2016,06,30,16,48,20.30
2016,06,30,16,49,20.30
2016,06,30,16,50,20.40
2016,06,30,16,51,20.50
2016,06,30,16,52,20.40
2016,06,30,16,53,20.40
2016,06,30,16,54,20.40
2016,06,30,16,55,20.40
2016,06,30,16,56,20.30
2016,06,30,16,57,20.30
2016,06,30,16,58,20.20
2016,06,30,16,59,20.20
2016,06,30,17,00,20.10
2016,06,30,17,01,20.10
2016,06,30,17,02,20.10
2016,06,30,17,03,20.00
2016,06,30,17,04,19.90
2016,06,30,17,05,19.90
2016,06,30,17,06,19.80
2016,06,30,17,07,19.80
2016,06,30,17,08,19.80
2016,06,30,17,09,19.70
2016,06,30,17,10,19.70
2016,06,30,17,11,19.60
2016,06,30,17,12,19.60
2016,06,30,17,13,19.50
2016,06,30,17,14,19.50
2016,06,30,17,15,19.40
2016,06,30,17,16,19.40
2016,06,30,17,17,19.40
2016,06,30,17,18,19.40
2016,06,30,17,19,19.40